When you browse on this site, cookies collect data to enhance your experience and personalize the content and advertising you see.
Visit our Privacy Policy to learn more. By continuing to use the site, you agree to this use of cookies and data.
  • In Hungary
  • List of Countries
  • For 7 days
  • Water Temperature
  • Weather Map
  • News
  • Weather Widgets
  • user-avatar
    Login

    Hourly Weather Golcovo

    Today, 19 September, Thursday

    Time Temperature Precipitation Wind Pressure Humidity
    00:00 +4°C° 0 mm 3 mps 738 mmHg 96%
    01:00 +4°C° 0 mm 3 mps 739 mmHg 95%
    02:00 +4°C° 0 mm 3 mps 739 mmHg 94%
    03:00 +4°C° 0 mm 3 mps 740 mmHg 94%
    04:00 +4°C° 0 mm 3 mps 740 mmHg 93%
    05:00 +3°C° 0 mm 3 mps 741 mmHg 93%
    06:00 +4°C° 0 mm 3 mps 741 mmHg 91%
    07:00 +4°C° 0 mm 3 mps 742 mmHg 89%
    08:00 +4°C° 0 mm 3 mps 743 mmHg 87%
    09:00 +5°C° 0 mm 3 mps 743 mmHg 79%
    10:00 +5°C° 0 mm 3 mps 743 mmHg 70%
    11:00 +7°C° 0 mm 3 mps 744 mmHg 62%
    12:00 +8°C° 0 mm 3 mps 744 mmHg 59%
    13:00 +8°C° 0 mm 3 mps 744 mmHg 56%
    14:00 +8°C° 0 mm 2 mps 745 mmHg 53%
    15:00 +8°C° 0 mm 2 mps 745 mmHg 59%
    16:00 +8°C° 0 mm 1 mps 745 mmHg 64%
    17:00 +7°C° 0 mm 1 mps 745 mmHg 70%
    18:00 +7°C° 0 mm 1 mps 745 mmHg 73%
    19:00 +6°C° 0 mm 1 mps 746 mmHg 76%
    20:00 +5°C° 0 mm 1 mps 746 mmHg 79%
    21:00 +5°C° 0 mm 1 mps 746 mmHg 81%
    22:00 +4°C° 0 mm 1 mps 746 mmHg 83%
    23:00 +4°C° 0 mm 1 mps 746 mmHg 85%

    Tomorrow, 20 September, Friday

    Time Temperature Precipitation Wind Pressure Humidity
    00:00 +4°C° 0 mm 1 mps 746 mmHg 85%
    01:00 +4°C° 0 mm 1 mps 746 mmHg 86%
    02:00 +4°C° 0 mm 1 mps 746 mmHg 86%
    03:00 +3°C° 0 mm 1 mps 746 mmHg 87%
    04:00 +3°C° 0 mm 1 mps 746 mmHg 88%
    05:00 +3°C° 0 mm 1 mps 746 mmHg 90%
    06:00 +4°C° 0 mm 1 mps 746 mmHg 84%
    07:00 +5°C° 0 mm 1 mps 746 mmHg 79%
    08:00 +6°C° 0 mm 1 mps 746 mmHg 74%
    09:00 +7°C° 0 mm 1 mps 746 mmHg 68%
    10:00 +9°C° 0 mm 1 mps 746 mmHg 61%
    11:00 +10°C° 0 mm 1 mps 746 mmHg 55%
    12:00 +10°C° 0 mm 1 mps 746 mmHg 54%
    13:00 +10°C° 0 mm 1 mps 746 mmHg 54%
    14:00 +9°C° 0 mm 2 mps 746 mmHg 54%
    15:00 +8°C° 0.1 mm 2 mps 746 mmHg 62%
    16:00 +8°C° 0.1 mm 1 mps 745 mmHg 70%
    17:00 +7°C° 0.1 mm 1 mps 745 mmHg 78%
    18:00 +7°C° 0.1 mm 1 mps 746 mmHg 83%
    19:00 +6°C° 0.1 mm 1 mps 746 mmHg 88%
    20:00 +5°C° 0.1 mm 1 mps 746 mmHg 93%
    21:00 +4°C° 0 mm 1 mps 746 mmHg 94%
    22:00 +3°C° 0 mm 2 mps 746 mmHg 96%
    23:00 +2°C° 0 mm 2 mps 746 mmHg 97%

    Day after tomorrow, 21 September, Saturday

    Time Temperature Precipitation Wind Pressure Humidity
    00:00 +2°C° 0 mm 2 mps 746 mmHg 97%
    01:00 +1°C° 0 mm 2 mps 746 mmHg 96%
    02:00 +1°C° 0 mm 2 mps 746 mmHg 95%
    03:00 -1°C° 0 mm 2 mps 746 mmHg 95%
    04:00 +1°C° 0 mm 1 mps 746 mmHg 95%
    05:00 0°C° 0 mm 1 mps 746 mmHg 95%
    06:00 +1°C° 0 mm 1 mps 746 mmHg 91%
    07:00 +2°C° 0 mm 2 mps 746 mmHg 86%
    08:00 +3°C° 0 mm 2 mps 746 mmHg 82%
    09:00 +4°C° 0 mm 2 mps 745 mmHg 75%
    10:00 +6°C° 0 mm 2 mps 745 mmHg 68%
    11:00 +7°C° 0 mm 2 mps 745 mmHg 62%
    12:00 +7°C° 0 mm 3 mps 744 mmHg 59%
    13:00 +8°C° 0 mm 3 mps 744 mmHg 57%
    14:00 +8°C° 0 mm 3 mps 744 mmHg 55%
    15:00 +7°C° 0.1 mm 3 mps 743 mmHg 66%
    16:00 +5°C° 0.1 mm 3 mps 742 mmHg 78%
    17:00 +3°C° 0.1 mm 3 mps 742 mmHg 90%
    18:00 +3°C° 0.1 mm 3 mps 741 mmHg 91%
    19:00 +3°C° 0.1 mm 3 mps 741 mmHg 93%
    20:00 +3°C° 0.1 mm 3 mps 740 mmHg 94%
    21:00 +3°C° 0.4 mm 3 mps 739 mmHg 95%
    22:00 +3°C° 0.4 mm 3 mps 739 mmHg 95%
    23:00 +4°C° 0.4 mm 3 mps 738 mmHg 96%

    22 September, Sunday

    Time Temperature Precipitation Wind Pressure Humidity
    00:00 +4°C° 0.5 mm 3 mps 737 mmHg 96%
    01:00 +5°C° 0.5 mm 2 mps 736 mmHg 96%
    02:00 +5°C° 0.5 mm 2 mps 736 mmHg 97%
    03:00 +4°C° 0.4 mm 3 mps 735 mmHg 96%
    04:00 +3°C° 0.4 mm 3 mps 735 mmHg 95%
    05:00 +3°C° 0.4 mm 4 mps 734 mmHg 94%
    06:00 +2°C° 0.1 mm 5 mps 735 mmHg 92%
    07:00 +1°C° 0.1 mm 6 mps 735 mmHg 89%
    08:00 0°C° 0.1 mm 7 mps 736 mmHg 86%
    09:00 +2°C° 0 mm 7 mps 737 mmHg 80%
    10:00 +2°C° 0 mm 8 mps 738 mmHg 73%
    11:00 +2°C° 0 mm 8 mps 739 mmHg 66%
    12:00 +4°C° 0.1 mm 8 mps 740 mmHg 64%
    13:00 +4°C° 0.1 mm 7 mps 740 mmHg 62%
    14:00 +4°C° 0.1 mm 7 mps 741 mmHg 60%
    15:00 +4°C° 0.1 mm 6 mps 742 mmHg 65%
    16:00 +3°C° 0.1 mm 5 mps 743 mmHg 70%
    17:00 +3°C° 0.1 mm 4 mps 744 mmHg 76%
    18:00 +3°C° 0 mm 4 mps 744 mmHg 80%
    19:00 +1°C° 0 mm 4 mps 745 mmHg 83%
    20:00 +1°C° 0 mm 4 mps 746 mmHg 87%
    21:00 0°C° 0 mm 4 mps 746 mmHg 88%
    22:00 0°C° 0 mm 3 mps 746 mmHg 88%
    23:00 0°C° 0 mm 3 mps 747 mmHg 88%

    23 September, Monday

    Time Temperature Precipitation Wind Pressure Humidity
    00:00 -1°C° 0 mm 3 mps 747 mmHg 90%
    01:00 -1°C° 0 mm 3 mps 747 mmHg 91%
    02:00 -2°C° 0 mm 3 mps 748 mmHg 93%
    03:00 -1°C° 0 mm 3 mps 748 mmHg 93%
    04:00 -1°C° 0 mm 3 mps 748 mmHg 94%
    05:00 -1°C° 0 mm 3 mps 748 mmHg 94%
    06:00 -1°C° 0 mm 3 mps 748 mmHg 90%
    07:00 0°C° 0 mm 3 mps 748 mmHg 85%
    08:00 +1°C° 0 mm 3 mps 749 mmHg 81%
    09:00 +2°C° 0 mm 3 mps 748 mmHg 73%
    10:00 +4°C° 0 mm 3 mps 748 mmHg 64%
    11:00 +7°C° 0 mm 3 mps 748 mmHg 56%
    12:00 +6°C° 0.1 mm 4 mps 748 mmHg 58%
    13:00 +6°C° 0.1 mm 4 mps 748 mmHg 61%
    14:00 +6°C° 0.1 mm 4 mps 747 mmHg 64%
    15:00 +5°C° 0.1 mm 3 mps 747 mmHg 68%
    16:00 +4°C° 0.1 mm 3 mps 747 mmHg 72%
    17:00 +5°C° 0.1 mm 2 mps 747 mmHg 76%
    18:00 +4°C° 0 mm 2 mps 746 mmHg 80%
    19:00 +3°C° 0 mm 2 mps 746 mmHg 84%
    20:00 +1°C° 0 mm 2 mps 746 mmHg 88%
    21:00 +1°C° 0 mm 2 mps 746 mmHg 91%
    22:00 -1°C° 0 mm 2 mps 746 mmHg 93%
    23:00 -1°C° 0 mm 2 mps 746 mmHg 95%

    24 September, Tuesday

    Time Temperature Precipitation Wind Pressure Humidity
    00:00 -1°C° 0 mm 2 mps 746 mmHg 96%
    01:00 -2°C° 0 mm 2 mps 746 mmHg 96%
    02:00 0°C° 0 mm 1 mps 746 mmHg 96%
    03:00 0°C° 0 mm 1 mps 745 mmHg 96%
    04:00 0°C° 0 mm 1 mps 745 mmHg 96%
    05:00 0°C° 0 mm 1 mps 745 mmHg 96%
    06:00 +1°C° 0 mm 1 mps 745 mmHg 90%
    07:00 +2°C° 0 mm 1 mps 745 mmHg 85%
    08:00 +4°C° 0 mm 1 mps 745 mmHg 79%
    09:00 +5°C° 0 mm 1 mps 745 mmHg 71%
    10:00 +7°C° 0 mm 1 mps 745 mmHg 63%
    11:00 +8°C° 0 mm 1 mps 745 mmHg 55%
    12:00 +8°C° 0 mm 1 mps 745 mmHg 54%
    13:00 +8°C° 0 mm 1 mps 745 mmHg 53%
    14:00 +8°C° 0 mm 1 mps 745 mmHg 52%
    15:00 +7°C° 0 mm 1 mps 745 mmHg 57%
    16:00 +6°C° 0 mm 1 mps 745 mmHg 62%
    17:00 +5°C° 0 mm 1 mps 745 mmHg 67%
    18:00 +5°C° 0 mm 1 mps 745 mmHg 69%
    19:00 +4°C° 0 mm 1 mps 745 mmHg 71%
    20:00 +3°C° 0 mm 1 mps 745 mmHg 73%
    21:00 +2°C° 0 mm 0 mps 745 mmHg 72%
    22:00 +3°C° 0 mm 0 mps 745 mmHg 71%
    23:00 +3°C° 0 mm 0 mps 745 mmHg 70%
    Show more